This demonstration page uses our WeatherBlox Daily Observations layout. Learn more.

Left ArrowRight Arrow

Hourly Observations for July 17, 2016

Temp ( °F °C ) Dew Point ( °F °C ) Humidity (%) Winds ( mph kmh ) Pressure ( in mb ) Visibility ( mi km ) Precip ( " mm )
12:53 am 00:53 Clear 64 17.8 61 16.1 90 90 N N/A 30.14 1021 10 16 N/A
1:53 am 01:53 Clear 63 17.2 60 15.6 90 90 N N/A 30.13 1020 10 16 N/A
2:53 am 02:53 Clear 62 16.7 60 15.6 93 93 N N/A 30.12 1020 10 16 N/A
3:53 am 03:53 Clear 61 16.1 59 15 93 93 N N/A 30.13 1020 7 11 N/A
4:53 am 04:53 Clear 60 15.6 57 13.9 90 90 N N/A 30.13 1020 10 16 N/A
5:53 am 05:53 Clear 59 15 57 13.9 93 93 N N/A 30.13 1020 10 16 N/A
6:53 am 06:53 Sunny with Mist and Fog 59 15 58 14.4 96 96 N N/A 30.15 1021 6 10 N/A
7:53 am 07:53 Sunny 67 19.4 63 17.2 87 87 N N/A 30.16 1021 10 16 N/A
8:53 am 08:53 Sunny 72 22.2 63 17.2 73 73 N N/A 30.18 1022 10 16 N/A
9:53 am 09:53 Sunny 78 25.6 64 17.8 62 62 ENE 3 6 30.17 1022 10 16 N/A
10:53 am 10:53 Sunny 82 27.8 65 18.3 56 56 VRB 3 6 30.17 1022 10 16 N/A
11:53 am 11:53 Sunny 85 29.4 67 19.4 55 55 N N/A 30.18 1022 10 16 N/A
12:53 pm 12:53 Partly Cloudy 86 30 68 20 55 55 SW 8 13 30.17 1022 10 16 N/A
1:53 pm 13:53 Mostly Sunny 88 31.1 69 20.6 54 54 SW 8 13 30.16 1021 10 16 N/A
2:53 pm 14:53 Mostly Sunny 88 31.1 67 19.4 50 50 VRB 6 9 30.14 1021 10 16 N/A
3:53 pm 15:53 Mostly Sunny 89 31.7 68 20 50 50 WSW 10 17 30.14 1021 10 16 N/A
4:53 pm 16:53 Mostly Sunny 89 31.7 69 20.6 52 52 W 12 19 30.13 1020 10 16 N/A
5:53 pm 17:53 Sunny 87 30.6 69 20.6 55 55 S 10 17 30.07 1018 10 16 N/A
6:53 pm 18:53 Sunny 86 30 68 20 55 55 SSW 9 15 30.08 1019 10 16 N/A
7:53 pm 19:53 Sunny 86 30 68 20 55 55 SW 7 11 30.07 1018 10 16 N/A
8:53 pm 20:53 Partly Cloudy 83 28.3 69 20.6 63 63 SSW 3 6 30.09 1019 10 16 N/A
9:53 pm 21:53 Clear 81 27.2 69 20.6 67 67 S 3 6 30.10 1019 10 16 N/A
10:53 pm 22:53 Clear 76 24.4 69 20.6 79 79 N N/A 30.13 1020 10 16 N/A
11:53 pm 23:53 Clear 74 23.3 69 20.6 85 85 N N/A 30.14 1021 10 16 N/A

Powered by AerisWeather